Zurück zum Katalog

STARLINK-33700

AktivKommunikationVLEO
NORAD 63484·PAYLOAD·🇺🇸 United States

Gestartet Apr 6, 2025 von Cape Canaveral Space Force Station

Loading…

Nächste Überflüge (nächste 24 Stunden)

TLE

AktuellSource: CelesTrak SupGP

Epoche: Sep 14, 2026, 22:42 UTC

1 63484C 25070AA  26257.94631944  .00037006  00000+0  13400-2 0  2573
2 63484  43.0028 270.8655 0001378 258.8513  36.1667 15.27569719    10

Verfolge STARLINK-33700 in Echtzeit mit AllMySat

Download on the App Store